Weather History for LTCI - March, 2013

Change the Weather History Date:

Sunday, March 10, 2013

  Actual Average Record
Temperature  
Mean Temperature 32 °F -  
Max Temperature 42 °F 47 °F 53 °F (2008)
Min Temperature 23 °F 30 °F 8 °F (1997)
Degree Days  
Heating Degree Days 32    
Moisture  
Dew Point 25 °F    
Average Humidity 71    
Maximum Humidity 93    
Minimum Humidity 49    
Precipitation  
Precipitation 0.00 in 0.06 in - ()
Sea Level Pressure  
Sea Level Pressure 29.93 in    
Wind  
Wind Speed 4 mph ()    
Max Wind Speed 9 mph    
Max Gust Speed -    
Visibility 5.6 miles    
Events      
Averages and records for this station are not official NWS values.
T = Trace of Precipitation, MM = Missing Value Source: Averaged Metar Reports

Daily Weather History Graph

Daily Weather History Graph

Search for Another Location

Airport or City:

Trip Planner

Search our weather history database for the weather conditions in past years. The results will help you decide how hot, cold, wet, or windy it might be!

Date:

Astronomy

Mar. 10, 2013 Rise Set
Actual Time 5:25 AM EET 5:08 PM EET
Civil Twilight 4:59 AM EET 5:35 PM EET
Nautical Twilight 4:28 AM EET 6:05 PM EET
Astronomical Twilight 3:57 AM EET 6:36 PM EET
Moon 4:11 AM EET (3/10) 3:52 PM EET (3/10)
Length of Visible Light 12h 35m
Length of Day
11h 43m
Waning Crescent, 2% of the Moon is Illuminated
Mar 10
Waning Crescent
Mar 11
New
Mar 19
First Quarter
Mar 27
Full
Apr 3
Last Quarter

Hourly Weather History & Observations

Time (EET) Temp. Windchill Dew Point Humidity Pressure Visibility Wind Dir Wind Speed Gust Speed Precip Events Conditions
12:50 AM 26.6 °F 21.2 °F 23.0 °F 86% 29.95 in 3.7 mi NE 4.6 mph - N/A   Scattered Clouds
1:50 AM 26.6 °F - 23.0 °F 86% 29.92 in 3.7 mi East 2.3 mph - N/A   Scattered Clouds
2:00 AM 26 °F - 23 °F 83%  in 4 mi East 2.3 mph - -   Mist
2:50 AM 26.6 °F - 24.8 °F 93% 29.92 in 3.7 mi SSE 2.3 mph - N/A   Scattered Clouds
3:50 AM 24.8 °F 17.9 °F 21.2 °F 86% 29.95 in 5.0 mi ENE 5.8 mph - N/A   Scattered Clouds
4:50 AM 24.8 °F - 21.2 °F 86% 29.95 in 5.0 mi East 2.3 mph - N/A   Scattered Clouds
5:50 AM 24.8 °F - 21.2 °F 86% 29.95 in 5.0 mi East 2.3 mph - N/A   Scattered Clouds
6:50 AM 32.0 °F - 24.8 °F 75% 29.95 in 6.2 mi Variable 2.3 mph - N/A   Partly Cloudy
7:50 AM 35.6 °F - 24.8 °F 65% 29.95 in 6.2 mi Variable 2.3 mph - N/A   Partly Cloudy
8:00 AM 36 °F - 24 °F 49%  in 6 mi SSE 2.3 mph - -   Scattered Clouds
8:50 AM 37.4 °F 33.8 °F 24.8 °F 60% 29.95 in 6.2 mi WSW 4.6 mph - N/A   Partly Cloudy
9:50 AM 39.2 °F 34.2 °F 24.8 °F 56% 29.95 in 6.2 mi West 6.9 mph - N/A   Partly Cloudy
10:50 AM 39.2 °F 34.2 °F 26.6 °F 61% 29.95 in 6.2 mi WNW 6.9 mph - N/A   Partly Cloudy
11:50 AM 41.0 °F 36.4 °F 24.8 °F 53% 29.92 in 6.2 mi West 6.9 mph - N/A   Partly Cloudy
12:50 PM 41.0 °F 36.4 °F 24.8 °F 53% 29.89 in 6.2 mi West 6.9 mph - N/A   Partly Cloudy
1:50 PM 41.0 °F 35.2 °F 30.2 °F 65% 29.89 in 6.2 mi WNW 9.2 mph - N/A   Partly Cloudy
2:00 PM 42 °F - 30 °F 50%  in 6 mi WNW 9.2 mph - -   Scattered Clouds
2:50 PM 41.0 °F 36.4 °F 30.2 °F 65% 29.89 in 6.2 mi West 6.9 mph - N/A   Partly Cloudy
3:50 PM 41.0 °F 37.1 °F 28.4 °F 61% 29.89 in 6.2 mi West 5.8 mph - N/A   Partly Cloudy
4:50 PM 39.2 °F 35.0 °F 26.6 °F 61% 29.89 in 6.2 mi WSW 5.8 mph - N/A   Partly Cloudy
5:50 PM 37.4 °F 33.8 °F 24.8 °F 60% 29.92 in 6.2 mi West 4.6 mph - N/A   Partly Cloudy
6:50 PM 35.6 °F 32.8 °F 26.6 °F 70% 29.95 in 6.2 mi South 3.5 mph - N/A   Partly Cloudy
7:50 PM 33.8 °F 29.6 °F 26.6 °F 75% 29.95 in - SSE 4.6 mph - N/A   Clear
8:00 PM 33 °F - 26 °F 66%  in 6 mi SSE 4.6 mph - -  
8:50 PM 32.0 °F - 24.8 °F 75% 29.95 in - SE 2.3 mph - N/A   Clear
9:50 PM 30.2 °F - 26.6 °F 86% 29.95 in - Calm Calm - N/A   Clear
10:50 PM 26.6 °F - 23.0 °F 86% 29.95 in - East 2.3 mph - N/A   Clear
11:50 PM 28.4 °F - 24.8 °F 86% 29.95 in - Variable 2.3 mph - N/A   Clear